Regional Weather Roundup
Issued by NWS

Home | Current Version | Previous Version | Text Only | Print | Product List | Glossary On
Versions: 1 2 3 4 5 6 7 8 9 10 11 12 13 14 15 16 17 18 19 20 21 22 23 24 25 26 27 28 29 30 31 32 33 34 35 36 37 38 39 40 41 42 43 44 45 46 47 48 49 50
000
ASUS43 KMPX 160210
RWRMN
WEATHER ROUNDUP FOR MINNESOTA
NATIONAL WEATHER SERVICE TWIN CITIES/CHANHASSEN MN
800 PM CST FRI DEC 15 2017


NOTE: "FAIR" INDICATES FEW OR NO CLOUDS BELOW 12,000 FEET WITH NO
SIGNIFICANT WEATHER AND/OR OBSTRUCTIONS TO VISIBILITY. N/A MEANS
CURRENT SKY AND/OR WEATHER CONDITIONS ARE NOT AVAILABLE.

MNZ060>063-068>070-160300-
   Twin Cities Metro

CITY           SKY/WX    TMP DP  RH WIND       PRES   REMARKS
TWIN CITIES    LGT SNOW  27  25  92 SE7       29.75S FOG     WCI  19
ST PAUL        LGT SNOW  25  24  96 S6        29.77S FOG     WCI  18
CRYSTAL        LGT SNOW  27  22  81 E5        29.73S WCI  22
BLAINE         LGT SNOW  27  25  93 E5        29.74S WCI  21
LAKEVILLE        N/A     27  27 100 CALM      29.74R
EDEN PRAIRIE   CLOUDY    29  25  85 E7        29.72F WCI  22
SOUTH ST PAUL  MIX PCPN  26  24  93 CALM      29.75S
LAKE ELMO      LGT SNOW  25  23  93 E3        29.75F
$$
MNZ001>005-007-008-013>017-022>024-027-028-160300-
   Northwest Minnesota

CITY           SKY/WX    TMP DP  RH WIND       PRES   REMARKS
BEMIDJI        LGT SNOW  14  11  88 E6        29.68R WCI   5
HALLOCK        LGT SNOW  18  14  86 E15       29.67S WCI   3
ROSEAU         CLOUDY    12   9  85 E9        29.72S HAZE    WCI   0
WARROAD        CLOUDY    10   7  85 E10       29.73S WCI  -3
THIEF RVR FALL LGT SNOW  16  13  88 E14       29.67S FOG     WCI   2
CROOKSTON      LGT SNOW  21  19  93 E9        29.66S WCI  11
FOSSTON        LGT SNOW  18  14  86 E8        29.65F WCI   7
DETROIT LAKES  LGT SNOW  23  23 100 SE9       29.64F WCI  13
MOORHEAD       LGT SNOW  27  25  93 CALM      29.62F
PARK RAPIDS    LGT SNOW  18  14  84 E6        29.66S FOG     WCI  10
MAHNOMEN       LGT SNOW  21  19  91 SE8       29.63F WCI  12
$$
MNZ006-009>011-018-025>026-160300-
   North Central Minnesota

CITY           SKY/WX    TMP DP  RH WIND       PRES   REMARKS
BAUDETTE       CLOUDY    10   5  80 E9        29.73R WCI  -3
FLAG ISLAND    CLOUDY     7   1  78 E6        29.75S WCI  -3
INTL FALLS     CLOUDY     5   0  79 E5        29.76R WCI  -4
WASKISH        CLOUDY    12   9  85 E7        29.72S WCI   2
BIG FORK       CLOUDY    12   7  79 CALM      29.71F
LONGVILLE      LGT SNOW  18  16  93 CALM      29.70S
GRAND RAPIDS   FLURRIES  14   8  77 CALM      29.73S
CRANE LAKE     CLOUDY    -2  -6  84 CALM      29.79S
ORR            CLOUDY     7   1  78 CALM      29.71S
COOK           CLOUDY     9   3  78 CALM      29.74S
WALKER         LGT SNOW  16  13  89 E5        29.69R WCI   9
$$
MNZ012-019>021-037-160300-
   Northeast Minnesota

CITY           SKY/WX    TMP DP  RH WIND       PRES   REMARKS
DULUTH         FLURRIES  12   5  73 E3        29.72F
ELY            CLOUDY    -2  -8  78 CALM      29.74S
HIBBING        CLOUDY    11   4  73 SE5       29.73S WCI   3
EVELETH        CLOUDY    12   5  73 CALM      29.74R
DULUTH HARBOR  CLOUDY    18  10  73 S3        29.80S
TWO HARBORS    CLOUDY    14   7  73 CALM      29.75S
SILVER BAY     CLOUDY     7   3  85 CALM      29.75F
GRAND MARAIS     N/A      7  -1  70 N8        29.84R WCI  -6
G MARAIS ARPRT CLEAR     -8 -13  77 CALM      29.72R
$$
MNZ029>031-032-039>041-046>048-054>057-064-160300-
   West Central Minnesota

CITY           SKY/WX    TMP DP  RH WIND       PRES   REMARKS
FERGUS FALLS   LGT RAIN  28  28 100 SE9       29.66F WCI  20
WHEATON        CLOUDY    30  28  93 SE12      29.64F WCI  21
MORRIS         CLOUDY    30  28  93 SE8       29.64F WCI  23
ALEXANDRIA     LGT SNOW  27  25  92 SE9       29.66S FOG     WCI  18
ELBOW LAKE     CLOUDY    29  28  98 SE7       29.64F WCI  22
WADENA         LGT SNOW  19  18  93 SE6       29.65F WCI  11
GLENWOOD       FLURRIES  27  27 100 SE5       29.67S WCI  21
APPLETON         N/A     34  30  86 E7        29.65F WCI  28
BENSON         CLOUDY    32  28  86 SE7       29.67S WCI  26
ORTONVILLE     CLOUDY    34  28  80 SE8       29.63F WCI  27
MADISON        CLOUDY    37  30  75 SE6       29.64F
WILLMAR        FAIR      30  28  93 E8        29.69S WCI  23
$$
MNZ033>034-036-042>043-049>051-058-059-160300-
   Central Minnesota

CITY           SKY/WX    TMP DP  RH WIND       PRES   REMARKS
ST CLOUD       CLOUDY    23  21  92 SE3       29.71F
SAUK CENTRE    LGT SNOW  26  24  94 SE5       29.68S WCI  20
PAYNESVILLE    CLOUDY    28  27  97 SE5       29.70S WCI  22
AITKIN         LGT SNOW  18  14  86 CALM      29.70F
PINE RIVER     LGT SNOW  18  14  86 E5        29.73S WCI  11
BRAINERD       LGT SNOW  20  17  88 CALM      29.70S FOG
STAPLES        LGT SNOW  19  18  93 SE3       29.67F
LITTLE FALLS   CLOUDY    23  18  80 SE5       29.70F WCI  17
LITCHFIELD     CLOUDY    28  27  93 SE7       29.70S WCI  21
BUFFALO        LGT SNOW  26  23  89 E3        29.73S
MAPLE LAKE     LGT SNOW  26  25  94 E5        29.72F WCI  21
HUTCHINSON     CLOUDY    30  28  93 E7        29.70S WCI  23
$$
MNZ037-044-045-052-053-160300-
   East Central Minnesota

CITY           SKY/WX    TMP DP  RH WIND       PRES   REMARKS
PRINCETON      LGT SNOW  23  19  86 E3        29.73S
MORA           LGT SNOW  19  14  79 E3        29.75F
CAMBRIDGE      LGT SNOW  23  16  74 E3        29.74F
RUSH CITY      LGT SNOW  19  16  86 CALM      29.76S
MOOSE LAKE     LGT SNOW  19  12  73 CALM      29.72F
HINCKLEY       LGT SNOW  19  18  93 CALM      29.75S
CLOQUET        FLURRIES  14   7  73 E3        29.73F
MCGREGOR       CLOUDY    19  14  79 CALM      29.72F
$$
MNZ071>073-080-081-089-090-097-098-160300-
   Southwest Minnesota

CITY           SKY/WX    TMP DP  RH WIND       PRES   REMARKS
MONTEVIDEO     CLOUDY    32  28  86 SE6       29.65S WCI  26
GRANITE FALLS  CLOUDY    36  30  80 E5        29.67S
CANBY          CLOUDY    38  28  67 CALM      29.64R
MARSHALL       CLOUDY    37  26  64 SW9       29.64F
REDWOOD FALLS  CLOUDY    35  30  82 SE3       29.67S
OLIVIA         CLOUDY    34  32  93 SE5       29.67S WCI  30
PIPESTONE      CLOUDY    36  27  69 SW13      29.63S
WINDOM           N/A     37  21  52 S10       29.65F
WORTHINGTON    CLOUDY    36  24  62 S14       29.65F
JACKSON        CLOUDY    36  27  69 S9        29.67F
SLAYTON        CLOUDY    36  27  70 S13       29.64F
$$
MNZ065>067-074>077-082>085-091>093-160300-
   South Central Minnesota

CITY           SKY/WX    TMP DP  RH WIND       PRES   REMARKS
MANKATO        CLOUDY    32  29  88 SE7       29.71F WCI  26
NEW ULM        CLOUDY    34  28  80 E6        29.68F WCI  29
ST JAMES       CLOUDY    36  27  69 S9        29.68F
FAIRMONT       CLOUDY    38  25  59 S12       29.69F
GLENCOE        CLOUDY    30  30 100 E6        29.70S WCI  24
FARIBAULT      CLOUDY    30  28  93 SE3       29.72F
OWATONNA       CLOUDY    34  28  80 SE7       29.72F WCI  28
WASECA         CLOUDY    32  30  93 SE8       29.72F WCI  25
ALBERT LEA     MOCLDY    34  27  75 SE5       29.71F WCI  30
$$
MNZ078>079-086>088-094>096-160300-
   Southeast Minnesota

CITY           SKY/WX    TMP DP  RH WIND       PRES   REMARKS
ROCHESTER      CLOUDY    29  27  92 SE9       29.73F WCI  20
RED WING       LGT SNOW  28  25  86 E3        29.75F
STANTON        CLOUDY    32  28  86 CALM      29.73S
DODGE CENTER   MOCLDY    28  27  93 SE8       29.72F WCI  20
WINONA         FLURRIES  32  30  93 SE3       29.79F
AUSTIN         CLOUDY    32  28  86 SE5       29.73F WCI  27
PRESTON        CLOUDY    29  27  91 SE5       29.76S WCI  24
$$
ABBREVIATIONS USED IN REMARKS
   TC - TEMPERATURES IN CELSIUS
  WCI - WIND CHILL INDEX
   HX - HEAT INDEX
  VSB - VISIBILITY
$$




USA.gov is the U.S. government's official web portal to all federal, state and local government web resources and services.